Temperature
12 12 12 12 12 12 12 12 13 13 13 13 12 12 12 12 12 11 11 12 12 12 12 12 12 12 12 12 12 12 12 12 12 12 12 12 12 12
13 12 12 12 12 12 12 12 12 12 13 12 12 12 11 11 11 11 11 11 12 12 12 12 12 12 12 12 12 12 12 12 12 11 11 11 11 11
12 12 12 12 12 12 12 12 12 12 12 12 11 11 11 11 11 11 11 11 11 11 11 11 11 11 11 11 11 11 11 11 11 11 11 11 11 11
12 12 12 12 12 12 12 12 12 12 12 11 11 11 11 11 11 11 11 11 11 11 11 11 11 11 11 11 11 11 11 11 11 11 11 11 11 11
12 12 12 11 11 11 11 11 11 11 11 11 11 11 11 10 11 11 10 10 10 11 11 11 11 11 11 11 11 11 11 11 11 11 11 11 10 10
11 11 11 11 11 11 11 11 11 11 11 11 11 10 10 10 10 10 10 10 10 10 10 10 11 11 11 11 11 10 10 10 10 10 10 10 10 10
11 11 11 11 11 11 11 11 11 11 10 10 10 10 10 10 10 10 10 10 10 10 10 10 10 10 10 10 10 10 10 10 10 10 10 10 10 10
11 11 11 11 11 11 11 11 11 10 10 10 10 10 10 10 10 10 9 9 9 10 10 10 10 10 10 10 10 10 10 10 10 10 10 10 10 10
11 10 10 11 11 10 11 11 11 10 10 10 10 10 10 10 9 9 9 9 9 9 9 9 9 9 9 10 10 10 10 10 10 10 10 10 10 10
10 10 10 10 10 10 10 10 10 10 10 10 10 10 10 9 9 9 9 9 9 9 9 9 9 9 9 9 10 10 10 10 10 9 9 9 9 9
10 10 10 10 10 10 10 10 10 10 10 10 10 10 10 9 9 9 9 9 9 8 9 8 9 9 9 9 9 9 9 9 9 9 9 9 9 9
10 10 10 10 10 10 10 9 9 9 9 9 9 9 9 9 9 9 9 8 8 8 8 8 8 8 8 9 9 9 9 9 9 9 9 9 9 9
10 9 9 10 10 10 9 9 9 9 9 9 9 9 9 9 9 9 9 8 8 8 8 8 8 8 8 8 8 8 8 9 9 9 9 9 9 9
9 9 9 10 9 9 9 9 9 9 9 8 8 8 8 8 8 8 8 8 8 8 8 8 7 8 7 7 7 8 8 8 8 8 8 8 8 8
9 9 9 9 9 9 8 9 9 8 8 8 8 8 8 8 8 8 8 8 8 8 8 8 7 7 7 7 7 7 7 8 8 8 8 8 8 8
8 8 9 8 8 8 8 8 8 8 8 7 7 7 8 8 7 7 7 7 7 7 7 7 7 7 7 7 7 7 7 7 7 7 7 7 7 7
8 8 7 7 7 7 7 7 7 7 7 7 7 7 7 7 7 7 7 7 7 7 7 7 7 7 7 6 6 6 7 7 7 7 7 7 7 7
7 7 7 7 7 7 7 7 7 6 7 6 6 6 6 6 6 6 6 6 6 6 6 6 6 6 6 6 6 6 6 6 6 6 6 6 6 7
7 6 6 6 6 6 6 6 6 6 6 6 6 6 6 6 6 6 6 6 6 6 6 6 6 5 5 5 6 6 6 6 5 6 6 6 6 6
6 6 6 6 6 6 6 6 5 5 5 5 5 5 5 5 5 5 5 5 5 5 5 5 5 5 5 5 5 5 5 5 5 5 5 5 5 6
5 5 5 5 5 5 5 5 5 5 5 5 5 5 5 5 5 5 5 5 5 5 4 5 5 5 5 5 4 5 5 5 5 5 5 5 5 5
5 5 5 5 5 4 4 4 4 4 4 4 4 4 4 4 4 4 4 4 4 4 4 4 4 4 4 4 4 4 4 4 4 4 4 4 4 4
4 4 4 4 4 4 4 4 4 4 4 4 4 4 4 4 4 4 4 4 4 3 3 3 3 4 3 3 3 3 3 3 3 4 4 4 4 4
Wind_Speed
5 5 4 3 3 3 3 3 3 3 2 1 1 1 1 1 1 2 1 3 2 2 2 2 2 1 2 2 2 1 1 1 2 2 3 3 4 5
4 5 4 4 3 3 4 4 4 4 3 1 1 1 2 2 2 3 1 2 1 0 1 2 2 1 1 1 1 1 2 2 1 1 1 2 2 3
6 6 6 4 4 4 4 4 4 4 4 3 1 2 2 3 2 3 3 3 2 2 1 2 2 2 1 1 2 2 2 2 2 1 1 1 1 1
6 6 6 4 5 5 4 5 4 5 5 4 3 2 3 3 3 3 3 3 3 2 3 3 3 3 3 3 3 3 3 3 2 2 2 2 2 2
6 6 6 6 6 5 5 4 4 4 4 5 4 2 3 3 3 3 4 3 4 3 4 5 4 4 4 4 4 4 4 4 3 3 4 3 3 2
6 6 7 7 7 6 5 5 4 5 5 5 4 3 3 3 3 3 3 3 4 4 3 4 5 6 7 6 6 5 5 5 5 5 4 4 4 3
6 6 6 5 4 4 4 5 5 5 5 4 4 4 4 3 4 4 4 4 4 3 4 4 4 5 5 7 7 6 6 6 6 6 5 5 5 5
6 6 5 6 5 5 5 5 5 6 6 5 5 5 5 5 4 4 4 4 4 3 4 5 4 4 4 5 4 5 7 6 6 6 6 6 6 6
6 5 4 4 5 6 6 7 7 6 7 7 7 6 6 4 5 6 6 5 4 2 4 5 4 5 4 4 4 6 7 7 7 7 7 7 7 7
6 5 5 5 5 5 6 6 6 6 6 7 7 6 5 5 6 6 6 5 5 3 3 5 4 4 4 5 6 7 8 8 8 8 8 8 8 8
5 5 5 5 3 3 6 6 5 4 4 5 4 4 3 3 4 4 4 4 4 3 3 4 4 4 4 4 4 8 9 10 9 9 9 8 9 9
4 4 3 3 2 4 6 5 6 5 4 4 4 5 5 4 6 6 5 5 4 3 3 3 4 3 3 3 3 3 5 8 10 10 9 9 9 8
3 3 3 3 3 4 5 5 4 5 5 5 4 4 4 4 4 5 4 5 5 5 3 3 4 4 4 3 3 3 3 4 5 7 9 9 10 9
3 3 2 3 3 4 4 2 2 4 5 4 4 4 4 4 4 4 4 5 5 5 4 4 4 4 5 5 4 3 3 4 4 4 5 7 9 10
2 0 0 2 3 3 3 3 3 3 4 4 4 4 4 4 4 3 4 4 4 4 4 5 4 5 5 6 5 4 4 4 4 4 4 4 5 5
2 2 3 4 3 2 3 3 3 2 3 4 4 3 3 3 3 3 3 3 3 3 3 4 5 5 5 6 5 5 4 3 3 4 4 4 5 5
2 2 2 2 3 3 3 3 3 3 3 4 4 3 3 3 3 3 3 4 4 4 3 3 3 3 4 5 5 5 4 4 4 4 4 4 4 4
3 3 3 3 3 3 3 3 3 3 3 3 3 3 3 3 3 3 3 4 4 4 4 3 2 2 3 3 4 5 4 4 4 4 4 4 5 4
3 3 3 3 3 4 4 4 4 3 3 3 3 3 4 4 3 3 3 4 4 3 3 3 3 4 5 5 3 3 5 4 4 4 4 4 5 5
4 4 4 4 4 4 4 4 3 3 3 3 3 3 3 3 3 4 4 4 3 3 3 3 3 4 5 5 3 3 4 4 4 5 4 4 4 4
4 4 4 4 4 4 4 4 4 4 4 4 4 4 4 3 4 4 4 3 4 4 4 4 3 4 4 3 3 3 2 3 4 4 4 4 4 4
5 5 5 5 4 4 4 4 4 5 4 4 4 4 4 4 4 4 4 4 4 4 4 3 3 2 3 4 4 4 3 2 3 4 4 3 3 3
5 5 4 4 5 4 4 5 6 5 5 5 5 4 4 4 4 4 4 4 4 4 4 3 3 2 3 4 4 4 5 4 2 2 3 3 4 5
Wind_Direction
239 232 231 236 234 237 242 251 267 272 268 231 225 201 212 209 164 237 229 94 57 30 21 13 13 24 31 31 25 9 13 24 35 33 31 25 22 21
239 242 238 237 233 230 234 246 254 265 274 266 241 221 217 237 216 253 249 135 209 294 356 352 335 333 345 360 353 343 337 335 325 359 17 8 4 12
226 230 233 235 227 226 234 242 244 246 257 268 247 229 231 245 230 243 246 246 226 187 260 305 316 299 292 300 303 299 297 308 285 268 292 321 332 344
229 229 229 222 229 229 230 237 239 240 250 258 258 253 255 249 249 249 253 254 258 185 228 259 268 273 267 264 271 276 281 290 275 262 266 274 279 299
230 230 229 225 227 227 229 236 242 241 243 249 254 260 257 244 246 251 253 255 256 230 223 230 236 249 256 255 259 262 265 269 260 255 255 259 265 276
230 232 233 232 233 232 229 231 234 236 233 239 242 244 241 243 239 244 249 248 256 252 245 247 230 235 240 244 247 253 258 255 246 247 248 251 259 263
228 231 235 241 259 247 241 235 230 231 230 235 239 244 238 231 238 245 252 256 256 252 258 250 241 246 240 232 232 239 247 245 240 238 239 245 252 252
227 226 223 220 224 227 243 248 248 241 237 234 238 241 244 240 240 243 246 252 258 243 261 260 252 254 251 249 233 231 237 239 241 239 237 240 243 244
226 222 223 222 220 228 216 216 229 243 252 252 247 248 249 246 242 244 244 250 263 266 266 264 254 258 254 248 225 227 230 232 235 235 235 238 238 239
226 226 225 225 224 235 229 226 231 230 235 245 249 253 254 253 244 245 253 259 258 240 251 267 265 263 266 255 225 223 228 232 237 238 236 236 238 237
228 228 226 228 203 222 232 231 233 234 221 240 271 275 289 272 262 245 243 247 257 247 244 264 272 277 268 255 233 221 228 230 235 237 237 237 241 238
225 222 213 242 203 210 227 232 236 240 237 227 229 230 240 223 220 233 237 245 256 252 228 247 259 269 270 259 261 252 241 234 231 231 232 232 234 241
223 223 212 181 198 213 240 241 251 260 245 240 239 237 236 232 225 231 239 244 249 253 237 236 252 253 259 267 269 273 268 257 241 235 229 225 227 236
231 231 212 155 180 202 229 253 248 251 245 239 238 237 234 233 238 244 246 247 257 263 243 236 248 252 260 267 273 275 276 275 267 258 246 222 225 232
240 265 142 162 196 208 207 217 225 242 245 242 244 246 247 245 239 242 246 248 257 263 252 243 251 252 255 261 266 270 277 276 266 263 254 243 236 232
228 185 178 187 210 224 217 216 228 241 249 251 255 256 253 247 240 235 235 236 246 252 253 257 255 253 255 262 265 265 267 269 266 265 262 257 252 245
221 210 207 203 212 221 225 230 234 232 240 249 255 254 250 251 252 249 240 237 244 246 245 249 252 255 267 271 261 262 264 268 266 261 261 263 260 254
195 215 216 216 222 228 232 234 237 241 245 249 251 248 244 247 249 250 251 245 240 244 246 245 243 249 254 258 267 268 265 267 270 256 249 256 261 257
205 226 230 232 234 234 236 238 242 246 248 249 251 250 247 249 248 247 245 248 253 257 259 255 244 242 254 262 254 254 269 267 267 260 251 257 264 266
222 230 236 237 239 243 245 246 247 247 248 249 252 252 246 246 247 249 247 248 253 264 270 268 266 264 260 269 275 281 257 270 269 263 255 261 268 277
225 231 239 242 239 241 244 246 246 244 247 249 253 256 254 250 250 252 251 252 258 256 258 267 277 276 274 266 261 263 264 243 256 268 264 252 257 258
230 237 240 244 244 243 242 240 243 245 245 248 250 250 250 249 252 254 252 248 249 255 263 273 274 262 259 253 267 277 278 271 235 250 277 269 260 254
236 239 244 245 245 243 242 243 247 248 246 247 247 245 243 246 250 248 247 247 251 253 256 258 253 250 254 257 266 275 279 284 285 275 255 226 230 252
Height
1538 1538 1538 1538 1538 1539 1539 1539 1540 1539 1539 1539 1538 1537 1537 1536 1536 1536 1535 1534 1533 1533 1532 1532 1531 1531 1530 1530 1529 1529 1528 1528 1528 1527 1527 1527 1526 1525
1535 1536 1536 1536 1536 1536 1537 1537 1538 1538 1537 1537 1536 1536 1535 1535 1534 1534 1534 1532 1532 1531 1531 1530 1530 1529 1529 1528 1528 1527 1527 1527 1526 1526 1526 1525 1525 1524
1532 1533 1533 1533 1533 1534 1534 1535 1535 1535 1535 1535 1535 1534 1533 1533 1532 1532 1532 1531 1530 1529 1529 1528 1528 1527 1527 1526 1526 1526 1525 1525 1525 1524 1524 1524 1523 1523
1529 1530 1530 1530 1531 1531 1531 1532 1532 1532 1533 1532 1532 1532 1531 1531 1530 1529 1529 1529 1528 1527 1527 1526 1526 1525 1525 1524 1524 1524 1523 1523 1523 1522 1522 1522 1522 1521
1526 1526 1527 1527 1528 1528 1528 1529 1529 1529 1530 1530 1529 1529 1528 1528 1527 1527 1527 1526 1526 1525 1524 1524 1523 1523 1522 1522 1522 1521 1521 1521 1521 1520 1520 1520 1519 1519
1522 1523 1523 1524 1525 1525 1525 1526 1526 1526 1526 1527 1526 1526 1526 1525 1525 1524 1524 1524 1523 1523 1522 1521 1520 1520 1519 1519 1519 1519 1518 1518 1518 1518 1517 1517 1517 1517
1519 1519 1519 1520 1521 1522 1522 1523 1523 1523 1523 1523 1523 1523 1523 1522 1522 1522 1522 1521 1520 1520 1519 1519 1518 1517 1517 1516 1516 1515 1515 1515 1515 1515 1515 1515 1514 1514
1515 1515 1516 1516 1517 1517 1518 1519 1519 1520 1520 1520 1520 1520 1520 1520 1519 1519 1519 1518 1518 1517 1516 1516 1515 1514 1514 1513 1513 1512 1512 1512 1512 1512 1512 1512 1512 1512
1512 1512 1512 1513 1513 1514 1514 1514 1515 1515 1516 1517 1517 1517 1517 1516 1516 1516 1516 1515 1515 1514 1513 1513 1512 1511 1511 1510 1510 1509 1509 1509 1509 1508 1508 1509 1509 1509
1508 1509 1509 1509 1510 1510 1511 1511 1512 1512 1512 1512 1513 1513 1513 1513 1512 1513 1512 1512 1511 1511 1510 1510 1509 1508 1507 1507 1506 1506 1506 1505 1505 1505 1505 1505 1505 1505
1504 1505 1505 1506 1506 1506 1507 1508 1508 1508 1508 1508 1508 1509 1508 1508 1508 1508 1508 1508 1508 1507 1507 1506 1505 1505 1504 1503 1502 1502 1502 1502 1502 1502 1502 1502 1502 1502
1500 1501 1501 1501 1502 1502 1503 1504 1504 1504 1505 1505 1505 1505 1505 1504 1504 1505 1505 1505 1504 1504 1503 1503 1502 1501 1501 1500 1499 1499 1498 1498 1498 1498 1498 1498 1499 1499
1496 1497 1497 1497 1498 1499 1500 1500 1500 1501 1501 1501 1501 1501 1501 1501 1500 1500 1501 1501 1501 1500 1499 1499 1498 1498 1498 1497 1496 1495 1495 1494 1494 1494 1494 1495 1495 1495
1492 1493 1493 1493 1494 1495 1495 1496 1496 1497 1497 1497 1498 1497 1497 1497 1497 1496 1496 1496 1496 1496 1495 1495 1495 1494 1494 1493 1493 1492 1491 1491 1490 1490 1491 1491 1491 1492
1489 1489 1489 1490 1490 1491 1491 1492 1492 1493 1493 1493 1493 1493 1493 1493 1493 1492 1492 1492 1492 1492 1492 1491 1491 1490 1490 1490 1489 1488 1487 1487 1487 1486 1487 1487 1487 1488
1485 1486 1486 1486 1487 1487 1487 1488 1488 1489 1489 1489 1489 1489 1489 1489 1489 1488 1488 1488 1488 1487 1487 1487 1486 1486 1486 1486 1485 1485 1484 1483 1483 1483 1483 1483 1484 1484
1481 1482 1483 1483 1483 1483 1484 1484 1484 1485 1485 1485 1485 1485 1485 1485 1484 1484 1484 1484 1484 1483 1483 1483 1482 1482 1482 1482 1481 1481 1480 1479 1479 1479 1479 1479 1479 1480
1478 1479 1479 1479 1479 1480 1480 1480 1481 1481 1481 1481 1481 1481 1481 1481 1480 1480 1480 1480 1480 1480 1479 1479 1479 1479 1479 1478 1478 1477 1476 1476 1475 1475 1475 1475 1475 1475
1475 1475 1475 1475 1476 1476 1476 1476 1477 1477 1477 1477 1477 1477 1477 1477 1477 1476 1476 1476 1476 1476 1475 1475 1475 1475 1475 1474 1473 1474 1473 1472 1471 1471 1470 1470 1471 1471
1471 1471 1471 1471 1472 1472 1472 1473 1473 1473 1473 1473 1473 1473 1472 1473 1473 1473 1472 1472 1472 1472 1471 1471 1471 1471 1471 1471 1470 1469 1469 1468 1467 1467 1466 1466 1466 1466
1467 1467 1468 1468 1468 1468 1468 1468 1468 1468 1468 1469 1468 1468 1468 1469 1469 1469 1468 1468 1468 1468 1467 1467 1467 1467 1466 1466 1466 1465 1465 1464 1464 1463 1462 1462 1461 1462
1463 1463 1463 1464 1464 1464 1464 1464 1464 1464 1464 1464 1464 1464 1464 1464 1464 1464 1464 1464 1464 1464 1464 1464 1463 1463 1462 1462 1461 1461 1461 1460 1459 1458 1458 1458 1457 1457
1458 1459 1459 1459 1459 1459 1459 1459 1459 1459 1459 1459 1459 1459 1459 1460 1460 1460 1460 1460 1460 1460 1460 1460 1459 1459 1459 1459 1458 1458 1457 1456 1455 1454 1454 1454 1453 1453